Weather History for KCUT - April, 2014

Change the Weather History Date:

Tuesday, April 1, 2014

  Actual Average Record
Temperature  
Mean Temperature 23 °F 35 °F  
Max Temperature 29 °F 45 °F 73 °F (1978)
Min Temperature 17 °F 25 °F 4 °F (1962)
Degree Days  
Heating Degree Days 42 30  
Month to date heating degree days 42 30  
Since 1 July heating degree days 6952 6905  
Cooling Degree Days 0 0  
Month to date cooling degree days 0 0  
Year to date cooling degree days 0 0  
Moisture  
Dew Point 20 °F    
Average Humidity 87    
Maximum Humidity 92    
Minimum Humidity 81    
Precipitation  
Precipitation 0.19 in 0.04 in 0.87 in (1931)
Month to date precipitation 0.19 0.04  
Year to date precipitation 2.72 1.91  
Sea Level Pressure  
Sea Level Pressure 29.89 in    
Wind  
Wind Speed 5 mph (South)    
Max Wind Speed 10 mph    
Max Gust Speed 15 mph    
Visibility 5 miles    
Events Fog , Snow    
T = Trace of Precipitation, MM = Missing Value Source: NWS Daily Summary

Daily Weather History Graph

Daily Weather History Graph

Search for Another Location

Airport or City:

Trip Planner

Search our weather history database for the weather conditions in past years. The results will help you decide how hot, cold, wet, or windy it might be!

Date:

Astronomy

Apr. 01, 2014 Rise Set
Actual Time 6:35 AM MDT 7:21 PM MDT
Civil Twilight 6:06 AM MDT 7:50 PM MDT
Nautical Twilight 5:32 AM MDT 8:25 PM MDT
Astronomical Twilight 4:56 AM MDT 9:00 PM MDT
Moon 7:36 AM MDT (4/1) 9:51 PM MDT (4/1)
Length of Visible Light 13h 43m
Length of Day
12h 45m
Waxing Crescent, 5% of the Moon is Illuminated
Apr 1
Waxing Crescent
Apr 7
First Quarter
Apr 15
Full
Apr 22
Last Quarter
Apr 29
New

Hourly Weather History & Observations

Time (MDT) Temp. Windchill Dew Point Humidity Pressure Visibility Wind Dir Wind Speed Gust Speed Precip Events Conditions
12:53 AM 18.0 °F - 14.0 °F 84% 30.05 in 10.0 mi Calm Calm - N/A   Clear
1:11 AM 18.0 °F - 15.1 °F 88% 29.90 in 4.0 mi Calm Calm - N/A   Scattered Clouds
1:13 AM 18.0 °F - 15.1 °F 88% 29.90 in 1.2 mi Calm Calm - N/A   Scattered Clouds
1:15 AM 18.0 °F - 15.1 °F 88% 29.90 in 0.8 mi Calm Calm - N/A   Mist
1:25 AM 18.0 °F - 16.0 °F 92% 29.89 in 0.2 mi Calm Calm - N/A Fog Light Freezing Fog
1:48 AM 17.6 °F - 15.8 °F 93% 29.89 in 0.8 mi Calm Calm - N/A   Mist
1:50 AM 17.6 °F - 15.8 °F 93% 29.88 in 1.0 mi Calm Calm - N/A   Mist
1:53 AM 18.0 °F - 16.0 °F 92% 30.02 in 1.5 mi Calm Calm - N/A   Overcast
2:01 AM 17.1 °F 11.7 °F 15.1 °F 92% 29.88 in 2.0 mi SSW 3.5 mph - N/A   Overcast
2:06 AM 17.1 °F - 15.1 °F 92% 29.88 in 0.8 mi Calm Calm - N/A   Overcast
2:20 AM 17.1 °F - 15.1 °F 92% 29.87 in 0.2 mi Calm Calm - N/A Fog Light Freezing Fog
2:28 AM 17.1 °F - 16.0 °F 96% 29.86 in 0.5 mi Calm Calm - N/A Fog Light Freezing Fog
2:48 AM 17.6 °F - 15.8 °F 93% 29.86 in 2.0 mi Calm Calm - N/A   Overcast
2:49 AM 17.1 °F - 15.1 °F 92% 29.99 in 2.0 mi Calm Calm - N/A   Overcast
2:53 AM 17.1 °F - 15.1 °F 92% 29.86 in 3.0 mi Calm Calm - N/A   Overcast
2:58 AM 17.1 °F - 15.1 °F 92% 29.86 in 1.8 mi Calm Calm - N/A   Overcast
3:07 AM 17.1 °F - 15.1 °F 92% 29.86 in 3.0 mi Calm Calm - N/A   Overcast
3:21 AM 17.1 °F 6.6 °F 14.0 °F 88% 29.87 in 8.0 mi SW 8.1 mph - N/A   Overcast
3:53 AM 18.0 °F 9.8 °F 16.0 °F 92% 29.99 in 5.0 mi WSW 5.8 mph - N/A   Overcast
4:11 AM 19.0 °F 12.3 °F 17.1 °F 92% 29.87 in 2.5 mi SW 4.6 mph - N/A   Overcast
4:30 AM 19.0 °F 10.0 °F 17.1 °F 92% 29.87 in 1.2 mi WSW 6.9 mph - N/A   Overcast
4:49 AM 19.4 °F 11.5 °F 15.8 °F 86% 29.87 in 2.0 mi SW 5.8 mph - N/A   Overcast
4:53 AM 19.0 °F 13.9 °F 16.0 °F 88% 29.98 in 2.5 mi Variable 3.5 mph - N/A   Overcast
5:01 AM 19.0 °F 10.0 °F 16.0 °F 88% 29.87 in 4.0 mi Variable 6.9 mph - N/A   Overcast
5:53 AM 19.0 °F 12.3 °F 16.0 °F 88% 29.97 in 4.0 mi WSW 4.6 mph - N/A   Overcast
6:26 AM 19.0 °F 10.0 °F 16.0 °F 88% 29.85 in 10.0 mi West 6.9 mph - N/A   Overcast
6:53 AM 19.9 °F 13.4 °F 18.0 °F 92% 29.96 in 6.0 mi West 4.6 mph - 0.00 in Snow Light Snow
7:09 AM 21.0 °F 14.6 °F 19.0 °F 92% 29.84 in 2.5 mi West 4.6 mph - 0.00 in Snow Light Snow
7:26 AM 23.0 °F 17.0 °F 19.9 °F 88% 29.84 in 1.5 mi West 4.6 mph - 0.00 in Snow Light Snow
7:33 AM 24.1 °F 19.7 °F 21.0 °F 88% 29.84 in 0.8 mi West 3.5 mph - 0.00 in Snow Light Snow
7:53 AM 25.0 °F - 23.0 °F 92% 29.96 in 0.8 mi Calm Calm - 0.01 in Snow Light Snow
7:59 AM 25.0 °F - 23.0 °F 92% 29.84 in 1.0 mi Calm Calm - 0.01 in Snow Light Snow
8:08 AM 25.0 °F - 23.0 °F 92% 29.84 in 0.5 mi Calm Calm - 0.01 in Fog , Snow Snow
8:26 AM 26.1 °F 21.9 °F 23.0 °F 88% 29.84 in 0.8 mi SSW 3.5 mph - 0.02 in Snow Light Snow
8:38 AM 26.1 °F 20.5 °F 23.0 °F 88% 29.84 in 0.5 mi SSW 4.6 mph - 0.03 in Fog , Snow Snow
8:45 AM 26.1 °F 20.5 °F 23.0 °F 88% 29.84 in 0.2 mi South 4.6 mph - 0.04 in Fog , Snow Snow
8:53 AM 26.1 °F 20.5 °F 23.0 °F 88% 29.96 in 0.5 mi South 4.6 mph - 0.04 in Fog , Snow Snow
9:26 AM 26.1 °F 21.9 °F 24.1 °F 92% 29.83 in 0.2 mi Variable 3.5 mph - 0.04 in Fog , Snow Snow
9:42 AM 27.0 °F 23.0 °F 24.1 °F 89% 29.83 in 0.5 mi Variable 3.5 mph - 0.05 in Fog , Snow Snow
9:51 AM 26.6 °F 21.2 °F 24.8 °F 93% 29.83 in 0.8 mi Variable 4.6 mph - 0.06 in Snow Light Snow
9:53 AM 27.0 °F 23.0 °F 24.1 °F 89% 29.96 in 0.8 mi South 3.5 mph - 0.06 in Snow Light Snow
10:53 AM 27.0 °F 19.5 °F 25.0 °F 92% 29.95 in 0.5 mi South 6.9 mph - 0.05 in Fog , Snow Snow
11:18 AM 27.0 °F 21.6 °F 25.0 °F 92% 29.82 in 1.0 mi Variable 4.6 mph - 0.01 in Snow Light Snow
11:53 AM 27.0 °F 20.5 °F 24.1 °F 89% 29.94 in 2.0 mi South 5.8 mph - 0.01 in Snow Light Snow
12:33 PM 28.0 °F 20.8 °F 25.0 °F 88% 29.80 in 4.0 mi ESE 6.9 mph - 0.01 in Snow Light Snow
12:53 PM 28.0 °F 22.8 °F 25.0 °F 88% 29.93 in 6.0 mi Variable 4.6 mph - 0.01 in Snow Light Snow
1:53 PM 28.9 °F 20.4 °F 24.1 °F 82% 29.92 in 10.0 mi South 9.2 mph - 0.00 in   Overcast
2:14 PM 28.9 °F 21.1 °F 24.1 °F 82% 29.80 in 10.0 mi South 8.1 mph - N/A   Overcast
2:19 PM 28.0 °F 20.0 °F 24.1 °F 85% 29.80 in 10.0 mi South 8.1 mph - N/A   Overcast
2:53 PM 28.0 °F 20.0 °F 24.1 °F 85% 29.93 in 10.0 mi SSE 8.1 mph - N/A   Overcast
3:21 PM 28.0 °F 20.8 °F 23.0 °F 81% 29.80 in 10.0 mi South 6.9 mph - N/A   Overcast
3:31 PM 27.0 °F 21.6 °F 21.9 °F 81% 29.80 in 10.0 mi Variable 4.6 mph - N/A   Overcast
3:38 PM 27.0 °F 18.0 °F 21.9 °F 81% 29.80 in 10.0 mi South 9.2 mph - N/A   Overcast
3:53 PM 26.1 °F 16.8 °F 21.0 °F 81% 29.94 in 10.0 mi SSE 9.2 mph - N/A   Overcast
4:26 PM 26.1 °F 20.5 °F 21.9 °F 84% 29.80 in 10.0 mi Variable 4.6 mph - N/A   Overcast
4:36 PM 25.0 °F 17.1 °F 21.0 °F 85% 29.80 in 10.0 mi SSE 6.9 mph - N/A   Overcast
4:53 PM 25.0 °F 18.1 °F 21.9 °F 88% 29.95 in 10.0 mi Variable 5.8 mph - N/A   Overcast
5:33 PM 26.1 °F 21.9 °F 21.9 °F 84% 29.81 in 10.0 mi Variable 3.5 mph - N/A   Overcast
5:53 PM 26.1 °F - 21.9 °F 84% 29.94 in 10.0 mi Calm Calm - N/A   Overcast
6:22 PM 26.1 °F 21.9 °F 21.9 °F 84% 29.81 in 10.0 mi SE 3.5 mph - N/A   Overcast
6:53 PM 26.1 °F 21.9 °F 21.9 °F 84% 29.95 in 10.0 mi SE 3.5 mph - N/A   Overcast
7:00 PM 25.0 °F 20.7 °F 21.9 °F 88% 29.82 in 10.0 mi Variable 3.5 mph - N/A   Overcast
7:53 PM 25.0 °F 20.7 °F 21.0 °F 85% 29.95 in 10.0 mi SE 3.5 mph - N/A   Overcast
8:53 PM 25.0 °F 20.7 °F 19.9 °F 81% 29.95 in 10.0 mi East 3.5 mph - N/A   Overcast
9:45 PM 24.1 °F 16.0 °F 19.9 °F 84% 29.84 in 10.0 mi ESE 6.9 mph - N/A   Overcast
9:53 PM 24.1 °F 18.2 °F 19.9 °F 84% 29.95 in 10.0 mi East 4.6 mph - N/A   Overcast
10:53 PM 24.1 °F 17.0 °F 19.9 °F 84% 29.95 in 10.0 mi Variable 5.8 mph - N/A   Overcast
11:41 PM 24.1 °F 18.2 °F 19.9 °F 84% 29.84 in 10.0 mi East 4.6 mph - N/A   Overcast
11:53 PM 24.1 °F 16.0 °F 19.0 °F 81% 29.95 in 3.0 mi ESE 6.9 mph - 0.00 in Snow Light Snow